Back to catalog

BREEZE-M R/B

AliveHEO
NORAD 42943·ROCKET BODY·🇷🇺 Russia

Launched Sep 28, 2017 from Baikonur Cosmodrome

Loading…

Next Passes (next 24 hours)

TLE

FreshSource: Space-Track

Epoch: Sep 14, 2026, 07:57 UTC

1 42943U 17057B   26257.33172352 -.00000132  00000-0  00000-0 0  9997
2 42943  23.9358  45.6150 6086724 347.6575   2.2555  2.14919140 70349

Track BREEZE-M R/B in real time with AllMySat

Download on the App Store